Simultaneous Nadir Overpasses (SNOs) Predictions

Prediction of SNOs between GOES-15 and TERRA Satellite Orbit:

Table of predicted SNOs for the next 14.0 days since TLE Epoch: 1/9/2016
Index Date Time (GOES-15) GOES-15 Lat,Lon TERRA Lat,Lon Distance(km) Time Diff (sec)
1 01/09/2016 19:25:27 -0.01,-134.53 -0.12,-134.10 49.03 80
2 01/11/2016 19:13:16 -0.01,-134.62 -0.73,-131.15 394.49 80
3 01/12/2016 07:37:20 -0.01,-134.67 -0.39,-136.34 189.97 80
4 01/14/2016 07:22:30 -0.01,-134.75 0.28,-133.39 154.77 80
5 01/14/2016 19:46:26 0.02,-134.74 0.80,-138.55 432.84 80
6 01/16/2016 07:10:19 -0.01,-134.83 0.91,-130.44 498.95 80
7 01/16/2016 19:34:15 0.02,-134.82 0.18,-135.60 88.73 80
8 01/18/2016 19:19:24 0.01,-134.89 -0.45,-132.64 254.72 80
9 01/19/2016 07:43:28 -0.02,-134.94 -0.66,-137.83 329.60 80
10 01/21/2016 07:28:38 -0.02,-135.00 0.03,-134.89 13.40 80




NCC Satellite Simultaneous Nadir Overpasses (SNOs) Prediction Service
